GLOBAL-19

导读

GLOBAL-19是美国于2023年3月24日08:00发射的卫星,作为全球定位系统星座的补充卫星,它承担着导航定位服务增强的职能。卫星搭载高精度原子钟,稳定播发导航信号,可为全球用户提供全天候、连续性的高精度定位、测速与授时服务。目前已稳定在轨运行近三年,有效提升了GPS系统全球覆盖的可靠性与定位精度,支撑军民各类导航应用需求。

基本信息
目录编号:
55982
目录名称:
GLOBAL-19
国际标识:
2023-041B
轨道中心:
EARTH
卫星名称:
GLOBAL-19
卫星全名:
--
卫星状态:
在轨 (已飞行1208 天)
发射日期:
2023-03-24 UTC
国别 :
美国 (US)
星等 :
--
轨道信息
数据来源 国际轨道数据
星历时间: 2026-07-14T07:27:11+0800
9小时前
查看轨道信息
半长轴: 6828.202km
偏心率: 0.0009472
轨道倾角: 42.002°
近地点辐角 210.721°
升交点赤经 45.586°
平近点角 149.308°
近地点: 443.597km
远地点: 456.533km
周期: 93.588分钟
每日圈数: 15.386621
详细信息
使用方式:
暂无
2D轨道图
3D轨道图
轨道高度分析图
轨道倾角分析图
轨道综合分析图
查看轨道综合分析图